OPS 4682 DEB, 51766

Orbit data source: Space-Track

OPS 4682 DEB, 51766 is space debris in LEO originally from a launch on Sat, 03 Apr 1965 UTC launched from the Air Force Western Test Range (AFWTR). Debris objects in space refer to the collection of defunct objects orbiting the Earth. Examples of debris include non-operational satellites, rocket bodies, and fragments generated from explosions, collisions, or faulty payload assembly.

Loading next visibility...
Identifier
51766, 1965-027GX
Orbit
LEO
Country
Flag of USUS
Related business
Manufacturer
Unknown
Mission
Spacecraft
Bus & Motor
Unknown
Mass
Unknown
Launch date (UTC)
1965-04-03 (61 years ago)
Launch vehicle
Unknown
Launch site
Air Force Western Test Range (AFWTR)
Object type
Payload
Rocket body
Debris
Shape & HBR
Unknown
Radar Cross Section
Medium (>0.1 m² and <1 m²)

Expand to show TLE details & history
Last TLE update: 2 days ago

TLE from 2 days ago
0 OPS 4682 DEB
1 51766U 65027GX  26205.90869248  .00000343  00000-0  12241-2 0  9998
2 51766  90.2471   8.7014 0032060 174.7831 185.3628 12.93286030547117
Epoch: 2026-07-24T21:48Z
TLE epoch observation values (Epoch: 2026-07-24T21:48:31.030Z)
Latitude
0.00004°
Longitude
98.94354°
Altitude
1,315.857 km
Speed
7.188 km/s
True Right ascension
00h 34m 48s
True Declination
0° 00' 00"
Sunlit
Object was in daylight at epoch
Visualization orbit readout
Latitude
Unknown
Longitude
Unknown
Altitude
Unknown
Speed
Unknown
Apparent Right ascension
Unknown
Apparent Declination
Unknown
Sunlit
N/A
Visualization observer readout
Local Sidereal Time
18:07:38
Azimuth
Unknown
Elevation
Unknown
Doppler factor
Unknown
Orbital elements
Apogee altitude
1,310.213 km
Perigee altitude
1,261.073 km
Semi-major axis
7,663.78 km
Eccentricity
0.00321
Inclination
90.2471°
RAAN
8.7014°
Arg. of periapsis
174.7831°
True anomaly
185.3286°
Mean anomaly
185.3628°
Eccentric anomaly
185.34569°
Mean motion
3.23503 °/min
Orbital period
111.28 mins
BSTAR
0.0012241
Loading maneuver chart data...
Computing Atmospheric mass density...
Loading historical data...
Loading historical data...
Loading historical data...
Loading historical data...
Loading historical data...
Loading historical data...
Loading historical data...

Documentation

Showing up to 5 results
|